| time (UTC) | temp F | wind direction | speed MPH | gust MPH | rain 1hr in | rain 24hr in | rain mn in | humidity % | barometer mb |
| 20260901124311 | 70 | 292 | 7.0 | 15.0 | 0.00 | 0.00 | 0.00 | 55 | 18.4 |
| 20260901123310 | 72 | 336 | 8.0 | 18.0 | 0.00 | 0.00 | 0.00 | 55 | 18.3 |
| 20260901120310 | 69 | 286 | 6.0 | 17.0 | 0.00 | 0.00 | 0.00 | 58 | 18.4 |
| 20260901115311 | 69 | 315 | 5.0 | 16.0 | 0.00 | 0.00 | 0.00 | 59 | 18.4 |
| 20260901114311 | 68 | 340 | 4.0 | 13.0 | 0.00 | 0.00 | 0.00 | 62 | 18.3 |
| 20260901113311 | 68 | 290 | 8.0 | 16.0 | 0.00 | 0.00 | 0.00 | 60 | 18.3 |
| 20260901112310 | 68 | 305 | 6.0 | 17.0 | 0.00 | 0.00 | 0.00 | 61 | 18.2 |
| 20260901111311 | 68 | 290 | 7.0 | 14.0 | 0.00 | 0.00 | 0.00 | 62 | 18.3 |
| 20260901110310 | 69 | 299 | 7.0 | 15.0 | 0.00 | 0.00 | 0.00 | 60 | 18.3 |
| 20260901105311 | 69 | 242 | 7.0 | 18.0 | 0.00 | 0.00 | 0.00 | 62 | 18.3 |
| 20260901104311 | 68 | 271 | 10.0 | 19.0 | 0.00 | 0.00 | 0.00 | 62 | 18.3 |
| 20260901103310 | 68 | 291 | 6.0 | 13.0 | 0.00 | 0.00 | 0.00 | 65 | 18.3 |
| 20260901102311 | 68 | 296 | 8.0 | 15.0 | 0.00 | 0.00 | 0.00 | 66 | 18.3 |
| 20260901101311 | 67 | 308 | 6.0 | 12.0 | 0.00 | 0.00 | 0.00 | 67 | 18.1 |
| 20260901100310 | 67 | 295 | 10.0 | 17.0 | 0.00 | 0.00 | 0.00 | 68 | 18.3 |
| 20260901095311 | 67 | 266 | 9.0 | 14.0 | 0.00 | 0.00 | 0.00 | 70 | 18.2 |
| 20260901094310 | 67 | 302 | 6.0 | 11.0 | 0.00 | 0.00 | 0.00 | 70 | 18.1 |
| 20260901092310 | 67 | 335 | 6.0 | 13.0 | 0.00 | 0.00 | 0.00 | 70 | 18.0 |
| 20260901091310 | 66 | 346 | 3.0 | 11.0 | 0.00 | 0.00 | 0.00 | 74 | 17.9 |
| 20260901090311 | 66 | 273 | 4.0 | 9.0 | 0.00 | 0.00 | 0.00 | 75 | 17.9 |
| 20260901085311 | 66 | 315 | 4.0 | 10.0 | 0.00 | 0.00 | 0.00 | 76 | 18.0 |
| 20260901084311 | 66 | 316 | 5.0 | 14.0 | 0.00 | 0.00 | 0.00 | 76 | 17.8 |
| 20260901083311 | 66 | 253 | 4.0 | 12.0 | 0.00 | 0.00 | 0.00 | 78 | 17.6 |
| 20260901082311 | 66 | 288 | 6.0 | 10.0 | 0.00 | 0.00 | 0.00 | 79 | 17.5 |
| 20260901081311 | 66 | 304 | 7.0 | 11.0 | 0.00 | 0.00 | 0.00 | 80 | 17.4 |
| 20260901080310 | 65 | 273 | 2.0 | 8.0 | 0.00 | 0.00 | 0.00 | 87 | 17.2 |
| 20260901075311 | 65 | 275 | 3.0 | 8.0 | 0.00 | 0.00 | 0.00 | 87 | 17.0 |
| 20260901074311 | 64 | 273 | 3.0 | 9.0 | 0.00 | 0.00 | 0.00 | 88 | 17.0 |
| 20260901073311 | 64 | 280 | 3.0 | 9.0 | 0.00 | 0.00 | 0.00 | 90 | 17.0 |
| 20260901072311 | 63 | 283 | 3.0 | 8.0 | 0.00 | 0.00 | 0.00 | 90 | 17.0 |
| 20260901071311 | 63 | 273 | 1.0 | 8.0 | 0.00 | 0.00 | 0.00 | 91 | 16.8 |
| 20260901070311 | 62 | 252 | 2.0 | 8.0 | 0.00 | 0.00 | 0.00 | 91 | 16.8 |
| 20260901065310 | 62 | 265 | 2.0 | 7.0 | 0.00 | 0.00 | 0.00 | 91 | 16.7 |
| 20260901064310 | 62 | 243 | 2.0 | 9.0 | 0.00 | 0.00 | 0.00 | 91 | 16.6 |
| 20260901063310 | 62 | 244 | 2.0 | 6.0 | 0.00 | 0.00 | 0.00 | 91 | 16.6 |
| 20260901062311 | 62 | 260 | 3.0 | 6.0 | 0.00 | 0.00 | 0.00 | 92 | 16.3 |
| 20260901061311 | 62 | 235 | 2.0 | 7.0 | 0.00 | 0.00 | 0.00 | 92 | 16.2 |
| 20260901060310 | 62 | 257 | 4.0 | 9.0 | 0.00 | 0.00 | 0.00 | 92 | 16.4 |
| 20260901055311 | 61 | 253 | 4.0 | 9.0 | 0.00 | 0.00 | 0.00 | 92 | 16.2 |
| 20260901054311 | 61 | 255 | 2.0 | 4.0 | 0.00 | 0.00 | 0.00 | 93 | 16.1 |
| 20260901052311 | 61 | 257 | 2.0 | 7.0 | 0.00 | 0.00 | 0.00 | 93 | 16.0 |
| 20260901051310 | 61 | 250 | 2.0 | 6.0 | 0.00 | 0.00 | 0.00 | 92 | 15.9 |
| 20260901050311 | 60 | 259 | 2.0 | 4.0 | 0.00 | 0.00 | 0.00 | 92 | 15.7 |
| 20260901045311 | 60 | 240 | 1.0 | 4.0 | 0.00 | 0.00 | 0.00 | 92 | 15.6 |
| 20260901044311 | 60 | 239 | 1.0 | 3.0 | 0.00 | 0.00 | 0.00 | 92 | 15.6 |
| 20260901043311 | 60 | 250 | 1.0 | 6.0 | 0.00 | 0.00 | 0.00 | 92 | 15.6 |
| 20260901042311 | 60 | 251 | 2.0 | 6.0 | 0.00 | 0.00 | 0.00 | 92 | 15.5 |
| 20260901041311 | 60 | 270 | 1.0 | 7.0 | 0.00 | 0.00 | 0.00 | 92 | 15.4 |
| 20260901035311 | 60 | 248 | 3.0 | 10.0 | 0.00 | 0.00 | 0.00 | 92 | 15.4 |
| 20260901034313 | 60 | 271 | 2.0 | 8.0 | 0.00 | 0.00 | 0.00 | 92 | 15.4 |
| 20260901033311 | 60 | 257 | 2.0 | 6.0 | 0.00 | 0.00 | 0.00 | 92 | 15.4 |
| 20260901032311 | 60 | 233 | 2.0 | 4.0 | 0.00 | 0.00 | 0.00 | 92 | 15.4 |
| 20260901031311 | 60 | 235 | 1.0 | 3.0 | 0.00 | 0.00 | 0.00 | 91 | 15.3 |
| 20260901025311 | 59 | 234 | 1.0 | 2.0 | 0.00 | 0.00 | 0.00 | 91 | 15.2 |
| 20260901024311 | 59 | 238 | 1.0 | 2.0 | 0.00 | 0.00 | 0.00 | 91 | 15.3 |
| 20260901023311 | 59 | 254 | 0.0 | 3.0 | 0.00 | 0.00 | 0.00 | 91 | 15.2 |
| 20260901022311 | 59 | 244 | 1.0 | 3.0 | 0.00 | 0.00 | 0.00 | 90 | 15.0 |
| 20260901021311 | 59 | 234 | 1.0 | 2.0 | 0.00 | 0.00 | 0.00 | 89 | 15.0 |
| 20260901020311 | 59 | 248 | 1.0 | 7.0 | 0.00 | 0.00 | 0.00 | 89 | 15.1 |
| 20260901015311 | 59 | 259 | 3.0 | 6.0 | 0.00 | 0.00 | 0.00 | 89 | 15.1 |
| 20260901014313 | 59 | 243 | 1.0 | 7.0 | 0.00 | 0.00 | 0.00 | 89 | 15.0 |
| 20260901013311 | 60 | 254 | 2.0 | 6.0 | 0.00 | 0.00 | 0.00 | 89 | 15.1 |
| 20260901010311 | 61 | 262 | 2.0 | 7.0 | 0.00 | 0.00 | 0.00 | 89 | 15.0 |
| 20260901005310 | 61 | 272 | 3.0 | 8.0 | 0.00 | 0.00 | 0.00 | 90 | 15.0 |
| 20260901004311 | 61 | 240 | 3.0 | 7.0 | 0.00 | 0.00 | 0.00 | 90 | 15.0 |
| 20260901003311 | 62 | 244 | 3.0 | 9.0 | 0.00 | 0.00 | 0.00 | 89 | 14.9 |
| 20260901002311 | 62 | 248 | 2.0 | 7.0 | 0.00 | 0.00 | 0.00 | 89 | 14.8 |
| 20260831235311 | 62 | 271 | 4.0 | 9.0 | 0.00 | 0.00 | 0.00 | 89 | 14.8 |
| 20260831234310 | 62 | 256 | 4.0 | 8.0 | 0.00 | 0.00 | 0.00 | 89 | 14.7 |
| 20260831233310 | 62 | 239 | 2.0 | 7.0 | 0.00 | 0.00 | 0.00 | 88 | 14.7 |
| 20260831232311 | 63 | 256 | 4.0 | 8.0 | 0.00 | 0.00 | 0.00 | 87 | 14.5 |
| 20260831230311 | 63 | 277 | 5.0 | 8.0 | 0.00 | 0.00 | 0.00 | 86 | 14.4 |
| 20260831225311 | 63 | 241 | 7.0 | 11.0 | 0.00 | 0.00 | 0.00 | 87 | 14.4 |
| 20260831224310 | 63 | 279 | 2.0 | 6.0 | 0.00 | 0.00 | 0.00 | 87 | 14.4 |
| 20260831223310 | 63 | 233 | 0.0 | 2.0 | 0.00 | 0.00 | 0.00 | 85 | 14.5 |
| 20260831222310 | 63 | 254 | 1.0 | 3.0 | 0.00 | 0.00 | 0.00 | 85 | 14.4 |
| 20260831220310 | 63 | 330 | 0.0 | 0.0 | 0.00 | 0.00 | 0.00 | 84 | 14.4 |
| 20260831215311 | 63 | 345 | 0.0 | 4.0 | 0.00 | 0.00 | 0.00 | 84 | 14.3 |
| 20260831212311 | 63 | 251 | 0.0 | 4.0 | 0.00 | 0.00 | 0.00 | 82 | 14.1 |
| 20260831211311 | 63 | 229 | 0.0 | 7.0 | 0.00 | 0.00 | 0.00 | 82 | 13.8 |
| 20260831205310 | 63 | 261 | 2.0 | 10.0 | 0.00 | 0.00 | 0.00 | 81 | 13.8 |
| 20260831204310 | 63 | 258 | 4.0 | 11.0 | 0.00 | 0.00 | 0.00 | 80 | 13.8 |
| 20260831202310 | 63 | 281 | 5.0 | 9.0 | 0.00 | 0.00 | 0.00 | 79 | 13.7 |
| 20260831200310 | 63 | 279 | 3.0 | 9.0 | 0.00 | 0.00 | 0.00 | 78 | 13.6 |
| 20260831195311 | 63 | 286 | 4.0 | 10.0 | 0.00 | 0.00 | 0.00 | 78 | 13.4 |
| 20260831194311 | 63 | 274 | 6.0 | 11.0 | 0.00 | 0.00 | 0.00 | 78 | 13.2 |
| 20260831193311 | 63 | 292 | 2.0 | 10.0 | 0.00 | 0.00 | 0.00 | 79 | 13.2 |
| 20260831192311 | 63 | 275 | 4.0 | 8.0 | 0.00 | 0.00 | 0.00 | 79 | 13.1 |
| 20260831191310 | 63 | 264 | 3.0 | 7.0 | 0.00 | 0.00 | 0.00 | 78 | 13.1 |
| 20260831185311 | 64 | 278 | 1.0 | 4.0 | 0.00 | 0.00 | 0.00 | 77 | 12.8 |
| 20260831183311 | 65 | 267 | 3.0 | 8.0 | 0.00 | 0.00 | 0.00 | 75 | 12.5 |
| 20260831182310 | 65 | 265 | 4.0 | 8.0 | 0.00 | 0.00 | 0.00 | 75 | 12.3 |
| 20260831180310 | 66 | 297 | 5.0 | 14.0 | 0.00 | 0.00 | 0.00 | 73 | 12.1 |
| 20260831174310 | 67 | 269 | 7.0 | 14.0 | 0.00 | 0.00 | 0.00 | 72 | 11.7 |
| 20260831173310 | 67 | 308 | 4.0 | 12.0 | 0.00 | 0.00 | 0.00 | 71 | 11.6 |
| 20260831172311 | 67 | 301 | 6.0 | 17.0 | 0.00 | 0.00 | 0.00 | 70 | 11.3 |
| 20260831171310 | 68 | 288 | 7.0 | 15.0 | 0.00 | 0.00 | 0.00 | 69 | 11.0 |
| 20260831170311 | 68 | 303 | 8.0 | 22.0 | 0.00 | 0.00 | 0.00 | 67 | 10.8 |
| 20260831165310 | 69 | 336 | 9.0 | 17.0 | 0.00 | 0.00 | 0.00 | 67 | 10.7 |
| 20260831164311 | 69 | 273 | 6.0 | 18.0 | 0.00 | 0.00 | 0.00 | 66 | 10.7 |
| 20260831162310 | 70 | 294 | 6.0 | 17.0 | 0.00 | 0.00 | 0.00 | 65 | 10.5 |
| 20260831161310 | 69 | 271 | 10.0 | 18.0 | 0.00 | 0.00 | 0.00 | 65 | 10.5 |
| 20260831160311 | 68 | 300 | 5.0 | 14.0 | 0.00 | 0.00 | 0.00 | 68 | 10.3 |
| 20260831155310 | 69 | 306 | 8.0 | 16.0 | 0.00 | 0.00 | 0.00 | 67 | 10.4 |
| 20260831154310 | 68 | 328 | 9.0 | 18.0 | 0.00 | 0.00 | 0.00 | 71 | 10.3 |
| 20260831153311 | 67 | 283 | 6.0 | 11.0 | 0.00 | 0.00 | 0.00 | 73 | 10.1 |
| 20260831151310 | 67 | 334 | 6.0 | 13.0 | 0.00 | 0.00 | 0.00 | 73 | 10.1 |
| 20260831150310 | 67 | 5 | 6.0 | 22.0 | 0.00 | 0.00 | 0.00 | 72 | 10.0 |
| 20260831145311 | 69 | 286 | 13.0 | 24.0 | 0.00 | 0.00 | 0.00 | 65 | 9.9 |
| 20260831144311 | 69 | 294 | 8.0 | 18.0 | 0.00 | 0.00 | 0.00 | 65 | 9.7 |
| 20260831142311 | 69 | 339 | 13.0 | 22.0 | 0.00 | 0.00 | 0.00 | 64 | 9.3 |
| 20260831141311 | 68 | 344 | 10.0 | 26.0 | 0.00 | 0.00 | 0.00 | 67 | 9.1 |
| 20260831140310 | 67 | 306 | 12.0 | 21.0 | 0.00 | 0.00 | 0.00 | 69 | 9.1 |
| 20260831135311 | 67 | 288 | 7.0 | 19.0 | 0.00 | 0.00 | 0.00 | 68 | 9.0 |
| 20260831134311 | 69 | 268 | 8.0 | 23.0 | 0.00 | 0.00 | 0.00 | 64 | 8.7 |
| 20260831133311 | 69 | 331 | 10.0 | 22.0 | 0.00 | 0.00 | 0.00 | 65 | 8.7 |
| 20260831132311 | 69 | 277 | 14.0 | 21.0 | 0.00 | 0.00 | 0.00 | 65 | 8.3 |
| 20260831131311 | 68 | 333 | 10.0 | 17.0 | 0.00 | 0.00 | 0.00 | 68 | 8.3 |
| 20260831130310 | 69 | 5 | 4.0 | 12.0 | 0.00 | 0.00 | 0.00 | 69 | 8.3 |
| 20260831125311 | 70 | 298 | 5.0 | 15.0 | 0.00 | 0.00 | 0.00 | 67 | 8.2 |